• In Netherlands
  • List of Countries
  • For 7 days
  • Water Temperature
  • Satellite Maps
  • Weather Map
  • Weather Widgets
  • user-avatar
    Login

    Hourly Weather Novosadkovskiy

    Today, 21 October, Sunday

    Time Temperature Precipitation Wind Pressure Humidity
    00:00 +15°C° 0 mm 0 mps 760 mmHg 77%
    01:00 +14°C° 0 mm 0 mps 760 mmHg 78%
    02:00 +14°C° 0 mm 0 mps 760 mmHg 80%
    03:00 +14°C° 0 mm 0 mps 760 mmHg 81%
    04:00 +15°C° 0 mm 1 mps 760 mmHg 82%
    05:00 +14°C° 0 mm 1 mps 760 mmHg 83%
    06:00 +14°C° 0 mm 1 mps 760 mmHg 84%
    07:00 +15°C° 0 mm 1 mps 760 mmHg 78%
    08:00 +18°C° 0 mm 1 mps 760 mmHg 72%
    09:00 +19°C° 0 mm 1 mps 760 mmHg 67%
    10:00 +20°C° 0 mm 1 mps 761 mmHg 62%
    11:00 +22°C° 0 mm 1 mps 761 mmHg 58%
    12:00 +23°C° 0 mm 1 mps 761 mmHg 54%
    13:00 +23°C° 0.3 mm 1 mps 761 mmHg 57%
    14:00 +22°C° 0.3 mm 1 mps 760 mmHg 60%
    15:00 +22°C° 0.3 mm 1 mps 760 mmHg 63%
    16:00 +21°C° 0.3 mm 1 mps 760 mmHg 69%
    17:00 +20°C° 0.3 mm 1 mps 761 mmHg 75%
    18:00 +18°C° 0.3 mm 2 mps 761 mmHg 80%
    19:00 +18°C° 0 mm 2 mps 761 mmHg 80%
    20:00 +18°C° 0 mm 2 mps 761 mmHg 81%
    21:00 +17°C° 0 mm 2 mps 761 mmHg 81%
    22:00 +17°C° 0 mm 3 mps 761 mmHg 80%
    23:00 +17°C° 0 mm 3 mps 761 mmHg 79%

    Tomorrow, 22 October, Monday

    Time Temperature Precipitation Wind Pressure Humidity
    00:00 +17°C° 0 mm 3 mps 761 mmHg 79%
    01:00 +17°C° 0 mm 3 mps 762 mmHg 78%
    02:00 +16°C° 0 mm 3 mps 762 mmHg 77%
    03:00 +15°C° 0 mm 4 mps 762 mmHg 77%
    04:00 +15°C° 0 mm 4 mps 762 mmHg 77%
    05:00 +14°C° 0 mm 4 mps 762 mmHg 76%
    06:00 +14°C° 0 mm 4 mps 762 mmHg 76%
    07:00 +15°C° 0 mm 4 mps 762 mmHg 71%
    08:00 +16°C° 0 mm 5 mps 762 mmHg 65%
    09:00 +16°C° 0 mm 5 mps 763 mmHg 59%
    10:00 +17°C° 0 mm 6 mps 763 mmHg 54%
    11:00 +20°C° 0 mm 6 mps 763 mmHg 48%
    12:00 +21°C° 0 mm 6 mps 763 mmHg 43%
    13:00 +21°C° 0 mm 6 mps 762 mmHg 42%
    14:00 +21°C° 0 mm 6 mps 762 mmHg 40%
    15:00 +21°C° 0 mm 5 mps 762 mmHg 39%
    16:00 +20°C° 0 mm 5 mps 762 mmHg 43%
    17:00 +17°C° 0 mm 5 mps 762 mmHg 47%
    18:00 +17°C° 0 mm 4 mps 762 mmHg 51%
    19:00 +17°C° 0 mm 4 mps 762 mmHg 52%
    20:00 +17°C° 0 mm 4 mps 762 mmHg 53%
    21:00 +15°C° 0 mm 4 mps 762 mmHg 54%
    22:00 +15°C° 0.1 mm 4 mps 762 mmHg 57%
    23:00 +15°C° 0.1 mm 4 mps 762 mmHg 60%

    Day after tomorrow, 23 October, Tuesday

    Time Temperature Precipitation Wind Pressure Humidity
    00:00 +15°C° 0.1 mm 4 mps 761 mmHg 62%
    01:00 +14°C° 0.1 mm 4 mps 761 mmHg 69%
    02:00 +14°C° 0.1 mm 3 mps 761 mmHg 76%
    03:00 +13°C° 0.1 mm 3 mps 761 mmHg 83%
    04:00 +13°C° 0 mm 3 mps 761 mmHg 87%
    05:00 +13°C° 0 mm 3 mps 760 mmHg 90%
    06:00 +13°C° 0 mm 3 mps 760 mmHg 93%
    07:00 +14°C° 0 mm 3 mps 760 mmHg 89%
    08:00 +15°C° 0 mm 4 mps 760 mmHg 85%
    09:00 +15°C° 0 mm 4 mps 760 mmHg 81%
    10:00 +17°C° 0 mm 4 mps 760 mmHg 74%
    11:00 +17°C° 0 mm 5 mps 760 mmHg 67%
    12:00 +19°C° 0 mm 5 mps 760 mmHg 60%
    13:00 +20°C° 0 mm 5 mps 759 mmHg 57%
    14:00 +20°C° 0 mm 5 mps 759 mmHg 54%
    15:00 +21°C° 0 mm 5 mps 758 mmHg 51%
    16:00 +19°C° 0 mm 4 mps 758 mmHg 56%
    17:00 +18°C° 0 mm 3 mps 758 mmHg 61%
    18:00 +17°C° 0 mm 2 mps 758 mmHg 66%
    19:00 +16°C° 0 mm 2 mps 758 mmHg 70%
    20:00 +15°C° 0 mm 2 mps 758 mmHg 74%
    21:00 +15°C° 0 mm 2 mps 758 mmHg 78%
    22:00 +14°C° 0 mm 2 mps 757 mmHg 81%
    23:00 +14°C° 0 mm 2 mps 757 mmHg 84%

    24 October, Wednesday

    Time Temperature Precipitation Wind Pressure Humidity
    00:00 +13°C° 0 mm 2 mps 757 mmHg 87%
    01:00 +13°C° 0 mm 2 mps 756 mmHg 89%
    02:00 +13°C° 0 mm 2 mps 756 mmHg 91%
    03:00 +12°C° 0 mm 3 mps 756 mmHg 93%
    04:00 +11°C° 0 mm 3 mps 755 mmHg 93%
    05:00 +11°C° 0 mm 3 mps 755 mmHg 94%
    06:00 +11°C° 0 mm 3 mps 755 mmHg 94%
    07:00 +12°C° 0 mm 3 mps 755 mmHg 87%
    08:00 +13°C° 0 mm 4 mps 754 mmHg 79%
    09:00 +14°C° 0 mm 4 mps 754 mmHg 71%
    10:00 +15°C° 0 mm 5 mps 754 mmHg 67%
    11:00 +17°C° 0 mm 5 mps 753 mmHg 63%
    12:00 +19°C° 0 mm 5 mps 753 mmHg 58%
    13:00 +19°C° 0.2 mm 6 mps 752 mmHg 58%
    14:00 +19°C° 0.2 mm 6 mps 751 mmHg 58%
    15:00 +20°C° 0.2 mm 7 mps 750 mmHg 58%
    16:00 +19°C° 0.6 mm 6 mps 750 mmHg 65%
    17:00 +16°C° 0.6 mm 5 mps 749 mmHg 72%
    18:00 +15°C° 0.6 mm 5 mps 749 mmHg 79%
    19:00 +15°C° 3.5 mm 5 mps 748 mmHg 82%
    20:00 +15°C° 3.5 mm 5 mps 748 mmHg 84%
    21:00 +15°C° 3.5 mm 5 mps 748 mmHg 86%
    22:00 +15°C° 2.1 mm 4 mps 747 mmHg 87%
    23:00 +15°C° 2.1 mm 4 mps 747 mmHg 87%

    25 October, Thursday

    Time Temperature Precipitation Wind Pressure Humidity
    00:00 +15°C° 2.1 mm 4 mps 746 mmHg 88%
    01:00 +15°C° 1.7 mm 4 mps 746 mmHg 88%
    02:00 +14°C° 1.7 mm 4 mps 746 mmHg 88%
    03:00 +14°C° 1.7 mm 4 mps 746 mmHg 88%
    04:00 +14°C° 1.2 mm 4 mps 746 mmHg 88%
    05:00 +14°C° 1.2 mm 4 mps 746 mmHg 87%
    06:00 +13°C° 1.2 mm 4 mps 746 mmHg 87%
    07:00 +13°C° 0.3 mm 4 mps 746 mmHg 86%
    08:00 +13°C° 0.3 mm 4 mps 746 mmHg 85%
    09:00 +13°C° 0.3 mm 4 mps 746 mmHg 83%
    10:00 +13°C° 0.7 mm 4 mps 746 mmHg 83%
    11:00 +13°C° 0.7 mm 4 mps 746 mmHg 82%
    12:00 +13°C° 0.7 mm 4 mps 746 mmHg 82%
    13:00 +13°C° 1 mm 4 mps 747 mmHg 80%
    14:00 +13°C° 1 mm 4 mps 747 mmHg 78%
    15:00 +12°C° 1 mm 4 mps 747 mmHg 77%
    16:00 +12°C° 0.1 mm 4 mps 748 mmHg 73%
    17:00 +11°C° 0.1 mm 4 mps 748 mmHg 70%
    18:00 +11°C° 0.1 mm 4 mps 749 mmHg 66%
    19:00 +10°C° 0 mm 4 mps 749 mmHg 64%
    20:00 +10°C° 0 mm 4 mps 750 mmHg 62%
    21:00 +8°C° 0 mm 4 mps 750 mmHg 60%
    22:00 +8°C° 0 mm 4 mps 751 mmHg 60%
    23:00 +8°C° 0 mm 4 mps 751 mmHg 61%

    26 October, Friday

    Time Temperature Precipitation Wind Pressure Humidity
    00:00 +8°C° 0 mm 4 mps 751 mmHg 61%
    01:00 +8°C° 0 mm 4 mps 751 mmHg 64%
    02:00 +7°C° 0 mm 4 mps 752 mmHg 66%
    03:00 +7°C° 0 mm 4 mps 752 mmHg 68%
    04:00 +8°C° 0 mm 3 mps 752 mmHg 71%
    05:00 +8°C° 0 mm 3 mps 753 mmHg 73%
    06:00 +7°C° 0 mm 3 mps 753 mmHg 75%
    07:00 +7°C° 0 mm 4 mps 753 mmHg 72%
    08:00 +8°C° 0 mm 4 mps 754 mmHg 69%
    09:00 +8°C° 0 mm 5 mps 754 mmHg 67%
    10:00 +9°C° 0 mm 5 mps 755 mmHg 62%
    11:00 +10°C° 0 mm 6 mps 755 mmHg 58%
    12:00 +10°C° 0 mm 6 mps 755 mmHg 54%
    13:00 +10°C° 0.1 mm 6 mps 755 mmHg 51%
    14:00 +10°C° 0.1 mm 6 mps 756 mmHg 48%
    15:00 +10°C° 0.1 mm 7 mps 756 mmHg 45%
    16:00 +10°C° 0 mm 6 mps 756 mmHg 48%
    17:00 +9°C° 0 mm 5 mps 757 mmHg 51%
    18:00 +8°C° 0 mm 4 mps 757 mmHg 54%
    19:00 +7°C° 0 mm 4 mps 758 mmHg 56%
    20:00 +7°C° 0 mm 4 mps 759 mmHg 58%
    21:00 +6°C° 0 mm 4 mps 759 mmHg 60%
    22:00 +6°C° 0 mm 4 mps 760 mmHg 62%
    23:00 +6°C° 0 mm 4 mps 760 mmHg 63%
    Show more